PSLV R/B, 40720

Orbit data source: Space-Track

PSLV R/B, 40720 is space debris in SSO originally from a launch on Fri, 10 Jul 2015 UTC launched from the Sirharikota (SRI). Debris objects in space refer to the collection of defunct objects orbiting the Earth. Examples of debris include non-operational satellites, rocket bodies, and fragments generated from explosions, collisions, or faulty payload assembly.

Loading next visibility...
Identifier
40720, 2015-032F
Orbit
SSO
Country
Flag of ININ / IND
Related business
Manufacturer
VSSC/LPSC
Mission
Spacecraft
Bus & Motor
PS-4, Unknown motor
Mass
920 kg wet, 920 kg dry
Launch date (UTC)
2015-07-10 (10 years ago)
Launch vehicle
Unknown
Launch site
Sirharikota (SRI)
Object type
Payload
Rocket body
Debris
Shape & HBR
Cyl + Cyl + 2 Nozzle, 1.6 m
Radar Cross Section
5.812 m², Large (>1 m²)

Expand to show TLE details & history
Last TLE update: 12 hours ago

TLE from 12 hours ago
0 PSLV R/B
1 40720U 15032F   25242.85470505  .00002169  00000-0  25706-3 0  9994
2 40720  98.1485 199.9964 0003745 334.6024  25.5006 14.85628175548178
Epoch: 2025-08-30T20:30Z
TLE epoch observation values (Epoch: 2025-08-30T20:30:46.516Z)
Latitude
0.00002°
Longitude
-86.98044°
Altitude
612.273 km
Speed
7.554 km/s
True Right ascension
13h 19m 59s
True Declination
0° 00' 00"
Sunlit
Object was in daylight at epoch
Visualization orbit readout
Latitude
Unknown
Longitude
Unknown
Altitude
Unknown
Speed
Unknown
Apparent Right ascension
Unknown
Apparent Declination
Unknown
Sunlit
N/A
Visualization observer readout
Local Sidereal Time
00:11:57
Azimuth
Unknown
Elevation
Unknown
Doppler factor
Unknown
Orbital elements
Apogee altitude
611.276 km
Perigee altitude
606.043 km
Semi-major axis
6,986.796 km
Eccentricity
0.00037
Inclination
98.1485°
RAAN
199.9964°
Arg. of periapsis
334.6024°
True anomaly
25.51908°
Mean anomaly
25.5006°
Eccentric anomaly
25.50984°
Mean motion
3.71643 °/min
Orbital period
96.87 mins
BSTAR
0.00025706
Loading maneuver chart data...
Computing Atmospheric mass density...
Loading historical data...
Loading historical data...
Loading historical data...
Loading historical data...
Loading historical data...
Loading historical data...
Loading historical data...
Other satellites on launch #32 in the year 2015 (2015-07-10 UTC)

Documentation

Showing up to 5 results
|